CW5430 North Hills PA US current weather conditions

sailwx.info

Wind from 266

Air temperature 3.3° C
Dewpoint -4.6° C

Last reported at 2020-Jan-28 23:04 UTC.
Time now 2020-Jan-29 00:00 UTC

Location: N 40°07' W 075°10'.
View on Google Maps.

See reports from other nearby stations

  
Tides and Currents Weather Stations Pressure Air Temp Water Temp Dewpoint Dewpoint Depression Visibility Wind Speed Wind Dir Waves Ship Positions
date/time (UTC)wind fromknots sea level pressurealtimeterstation pressurevisibilityair tempwater tempwave heightnotes
2020-Jan-28 23:04 266 3.3
2020-Jan-28 22:55 280 2 gusting 2 3.9
2020-Jan-28 22:45 293 0 gusting 6 3.9
2020-Jan-28 22:35 310 3.9
2020-Jan-28 22:25 345 0 gusting 11 3.9
2020-Jan-28 22:15 307 3 gusting 6 3.9
2020-Jan-28 22:04 301 3 gusting 6 3.9
2020-Jan-28 21:55 270 2 gusting 9 4.4
2020-Jan-28 21:45 319 0 gusting 9 3.9
2020-Jan-28 21:35 321 2 gusting 7 4.4
2020-Jan-28 21:25 307 2 gusting 8 4.4
2020-Jan-28 21:15 317 2 gusting 8 4.4
2020-Jan-28 21:04 302 2 gusting 6 4.4
2020-Jan-28 20:54 275 4.4
2020-Jan-28 20:44 305 2 gusting 12 4.4
2020-Jan-28 20:34 277 0 gusting 7 4.4
2020-Jan-28 20:25 317 0 gusting 7 4.4
2020-Jan-28 20:14 294 3 gusting 7 4.4
2020-Jan-28 20:04 294 4.4
2020-Jan-28 19:54 323 2 gusting 6 4.4
2020-Jan-28 19:44 301 2 gusting 6 4.4
2020-Jan-28 19:34 007 0 gusting 6 4.4
2020-Jan-28 19:24 309 4.4
2020-Jan-28 19:13 302 0 gusting 6 4.4
2020-Jan-28 19:03 335 2 gusting 8 4.4
2020-Jan-28 18:53 325 3 gusting 8 4.4
2020-Jan-28 18:43 318 2 gusting 6 3.9
2020-Jan-28 18:33 260 0 gusting 6 3.9
2020-Jan-28 18:23 292 0 gusting 6 3.9
2020-Jan-28 18:12 329 6 gusting 8 3.9
2020-Jan-28 18:02 280 0 gusting 8 3.9
2020-Jan-28 17:52 310 3.9
2020-Jan-28 17:42 317 3.9
2020-Jan-28 17:32 306 3.9
2020-Jan-28 17:22 321 2 gusting 7 3.9
2020-Jan-28 17:12 322 2 gusting 8 3.9
2020-Jan-28 17:02 302 2 gusting 8 3.9
2020-Jan-28 16:52 291 2 gusting 8 3.9
2020-Jan-28 16:41 311 3 gusting 8 3.9
2020-Jan-28 16:31 284 2 gusting 6 3.9
2020-Jan-28 16:21 313 0 gusting 8 3.9
2020-Jan-28 16:11 300 3 gusting 8 3.9
2020-Jan-28 16:00 280 3 gusting 7 3.9
2020-Jan-28 15:50 299 2 gusting 7 3.9
2020-Jan-28 15:40 291 0 gusting 6 3.9
2020-Jan-28 15:30 328 0 gusting 5 3.9
2020-Jan-28 15:19 300 2 gusting 5 3.9
2020-Jan-28 15:09 299 2 gusting 5 3.9
2020-Jan-28 15:00 309 2 gusting 5 3.3
2020-Jan-28 14:49 312 0 gusting 5 3.3
2020-Jan-28 14:39 294 0 gusting 7 3.3
2020-Jan-28 14:29 281 2 gusting 6 3.3
2020-Jan-28 14:18 308 3.3
2020-Jan-28 14:08 309 2.8
2020-Jan-28 13:58 322 2 gusting 4 2.8
2020-Jan-28 13:48 297 2.8
2020-Jan-28 13:38 305 2 gusting 5 2.8
2020-Jan-28 13:28 303 2 gusting 6 2.8
2020-Jan-28 13:18 322 0 gusting 5 2.8
2020-Jan-28 13:08 287 2 gusting 4 2.8
2020-Jan-28 12:59 292 2.8
2020-Jan-28 12:48 275 2.8
2020-Jan-28 12:39 280 0 gusting 5 2.8
2020-Jan-28 12:29 312 0 gusting 3 2.2
2020-Jan-28 12:19 240 2.2
2020-Jan-28 12:08 278 2 gusting 4 2.2
2020-Jan-28 11:58 228 2.2
2020-Jan-28 11:49 316 2.2
2020-Jan-28 11:39 272 0 gusting 3 2.2
2020-Jan-28 11:29 314 2.2
2020-Jan-28 11:19 298 2.8
2020-Jan-28 11:09 310 0 gusting 4 2.8
2020-Jan-28 10:58 289 5 gusting 4 2.2
2020-Jan-28 10:49 309 0 gusting 4 2.8
2020-Jan-28 10:39 252 2.8
2020-Jan-28 10:29 282 2.8
2020-Jan-28 10:19 301 2.8
2020-Jan-28 10:08 241 2.8
2020-Jan-28 09:58 263 2.8
2020-Jan-28 09:48 315 2 gusting 2 2.8
2020-Jan-28 09:38 321 2.8
2020-Jan-28 09:28 326 0 gusting 2 2.8
2020-Jan-28 09:18 299 2.8
2020-Jan-28 09:08 308 2 gusting 5 2.8
2020-Jan-28 08:58 303 2.8
2020-Jan-28 08:48 318 0 gusting 2 2.8
2020-Jan-28 08:37 300 0 gusting 1 2.8
2020-Jan-28 08:28 307 2.8
2020-Jan-28 08:18 327 0 gusting 1 2.8
2020-Jan-28 08:08 297 2.8
2020-Jan-28 07:57 314 2.8
2020-Jan-28 07:47 310 2.8
2020-Jan-28 07:36 307 2.8
2020-Jan-28 07:26 328 2.8
2020-Jan-28 07:16 345 2.8
2020-Jan-28 07:06 339 2 gusting 6 2.8
2020-Jan-28 06:56 330 2.8
2020-Jan-28 06:47 313 2.8
2020-Jan-28 06:36 298 2.8
2020-Jan-28 06:26 295 2.8
2020-Jan-28 06:16 294 2.8
2020-Jan-28 06:06 322 2.8
2020-Jan-28 05:56 297 3.3
2020-Jan-28 05:46 294 0 gusting 2 3.3
2020-Jan-28 05:36 307 2 gusting 5 3.9
2020-Jan-28 05:25 286 3.9
2020-Jan-28 05:16 302 3.9
2020-Jan-28 05:05 303 2 gusting 4 3.9
2020-Jan-28 04:55 240 3.9
2020-Jan-28 04:45 302 3.9
2020-Jan-28 04:35 269 2 gusting 3 3.9
2020-Jan-28 04:25 307 0 gusting 3 3.9
2020-Jan-28 04:15 302 3.9
2020-Jan-28 04:05 292 3.9
2020-Jan-28 03:56 262 3.9
2020-Jan-28 03:46 294 3.9
2020-Jan-28 03:36 265 3.9
2020-Jan-28 03:26 312 4.4
2020-Jan-28 03:17 282 4.4
2020-Jan-28 03:06 278 4.4
2020-Jan-28 02:56 298 4.4
2020-Jan-28 02:46 289 2 gusting 1 4.4
2020-Jan-28 02:36 260 4.4
2020-Jan-28 02:26 292 4.4
2020-Jan-28 02:16 232 0 gusting 2 4.4
2020-Jan-28 02:06 260 2 gusting 2 4.4
2020-Jan-28 01:56 295 4.4
2020-Jan-28 01:46 269 4.4
2020-Jan-28 01:36 286 4.4
2020-Jan-28 01:26 244 4.4
2020-Jan-28 01:16 287 4.4
2020-Jan-28 01:07 297 4.4
2020-Jan-28 00:57 279 4.4
2020-Jan-28 00:47 278 4.4
2020-Jan-28 00:36 258 2 gusting 2 5.0
2020-Jan-28 00:26 284 5.0
2020-Jan-28 00:16 301 5.0
2020-Jan-28 00:06 234 5.0
2020-Jan-27 23:55 266 5.0
2020-Jan-27 23:45 267 5.0
2020-Jan-27 23:35 269 0 gusting 0 5.0
2020-Jan-27 23:25 251 5.0
2020-Jan-27 23:15 244 5.0
2020-Jan-27 23:04 270 5.0
2020-Jan-27 22:54 305 0 gusting 1 5.0
2020-Jan-27 22:44 305 0 gusting 6 5.0
2020-Jan-27 22:34 237 5.0
2020-Jan-27 22:25 280 2 gusting 4 5.0
2020-Jan-27 22:15 303 5.6
2020-Jan-27 22:04 299 2 gusting 4 5.6
2020-Jan-27 21:55 319 2 gusting 5 5.6
2020-Jan-27 21:44 312 6 gusting 6 5.6
2020-Jan-27 21:34 310 3 gusting 6 5.6
2020-Jan-27 21:24 283 2 gusting 6 6.1
2020-Jan-27 21:14 289 6.1
2020-Jan-27 21:04 315 6.1
2020-Jan-27 20:54 283 6.1
2020-Jan-27 20:43 311 6.1
2020-Jan-27 20:33 284 5 gusting 8 6.1
2020-Jan-27 20:23 297 6.1
2020-Jan-27 20:13 263 2 gusting 7 6.1
2020-Jan-27 20:03 265 0 gusting 5 6.1
2020-Jan-27 19:53 286 6.1
2020-Jan-27 19:43 266 6.1
2020-Jan-27 19:33 275 2 gusting 9 6.1
2020-Jan-27 19:22 275 3 gusting 8 6.7
2020-Jan-27 19:12 266 2 gusting 7 6.1
2020-Jan-27 19:02 295 0 gusting 7 6.1
2020-Jan-27 18:52 249 2 gusting 8 6.1
2020-Jan-27 18:42 267 0 gusting 8 6.1
2020-Jan-27 18:32 274 2 gusting 6 5.6
2020-Jan-27 18:21 276 3 gusting 7 5.6
2020-Jan-27 18:11 313 0 gusting 7 5.6
2020-Jan-27 18:01 271 5 gusting 6 5.6
2020-Jan-27 17:51 296 5.6
2020-Jan-27 17:41 279 2 gusting 6 5.6
2020-Jan-27 17:31 253 3 gusting 6 5.6
2020-Jan-27 17:21 263 2 gusting 6 5.6
2020-Jan-27 17:11 272 5.6
2020-Jan-27 17:00 252 5 gusting 7 5.6
2020-Jan-27 16:51 251 2 gusting 6 5.6
2020-Jan-27 16:41 272 6 gusting 10 5.6
2020-Jan-27 16:31 198 5.6
2020-Jan-27 16:21 246 5 gusting 7 5.0
2020-Jan-27 16:11 262 5 gusting 7 5.0
2020-Jan-27 16:01 244 3 gusting 7 5.0
2020-Jan-27 15:51 235 3 gusting 8 5.0
2020-Jan-27 15:40 251 2 gusting 8 5.0
2020-Jan-27 15:30 233 2 gusting 6 4.4
2020-Jan-27 15:20 251 3 gusting 6 4.4
2020-Jan-27 15:10 273 2 gusting 6 4.4
2020-Jan-27 15:00 284 4.4
2020-Jan-27 14:50 242 6 gusting 7 4.4
2020-Jan-27 14:39 235 2 gusting 7 4.4
2020-Jan-27 14:29 217 0 gusting 7 4.4
2020-Jan-27 14:19 218 3.9
2020-Jan-27 14:08 241 3.3
2020-Jan-27 13:58 250 2 gusting 6 3.3
2020-Jan-27 13:47 272 2.8
2020-Jan-27 13:37 220 2.8
2020-Jan-27 13:27 231 2.8
2020-Jan-27 13:18 210 0 gusting 3 2.8
2020-Jan-27 13:08 233 2.8
2020-Jan-27 12:57 223 2.2
2020-Jan-27 12:48 210 0 gusting 4 2.2
2020-Jan-27 12:38 203 0 gusting 4 2.2
2020-Jan-27 12:28 220 0 gusting 3 2.2
2020-Jan-27 12:18 231 2.2
2020-Jan-27 12:08 242 0 gusting 4 2.8
2020-Jan-27 11:59 254 2.2
2020-Jan-27 11:48 199 0 gusting 3 2.2
2020-Jan-27 11:38 244 2.8
2020-Jan-27 11:28 221 2 gusting 4 2.8
2020-Jan-27 11:18 220 2 gusting 3 2.8
2020-Jan-27 11:08 254 2.2
2020-Jan-27 10:57 241 2.8
2020-Jan-27 10:47 232 0 gusting 4 2.8
2020-Jan-27 10:37 229 0 gusting 4 2.8
2020-Jan-27 10:28 222 0 gusting 5 2.8
2020-Jan-27 10:17 223 2.8
2020-Jan-27 10:07 230 2.8
2020-Jan-27 09:56 235 2 gusting 3 2.8
2020-Jan-27 09:47 226 2 gusting 5 2.8
2020-Jan-27 09:37 212 2 gusting 4 2.2
2020-Jan-27 09:27 221 2.2
2020-Jan-27 09:17 242 2 gusting 6 2.2
2020-Jan-27 09:07 207 2.2
2020-Jan-27 08:57 246 0 gusting 4 2.2
2020-Jan-27 08:47 260 2.2
2020-Jan-27 08:37 208 2.2
2020-Jan-27 08:26 213 2 gusting 2 1.7
2020-Jan-27 08:16 267 0 gusting 2 1.7
2020-Jan-27 08:06 240 1.7
2020-Jan-27 07:56 227 3 gusting 3 1.1
2020-Jan-27 07:46 268 1.1
2020-Jan-27 07:36 230 0.6
2020-Jan-27 07:25 251 0 gusting 2 0.6
2020-Jan-27 07:15 264 -0.0
2020-Jan-27 07:05 264 -0.0
2020-Jan-27 06:55 264 -0.6
2020-Jan-27 06:45 263 -0.6
2020-Jan-27 06:35 263 -0.6
2020-Jan-27 06:25 263 -0.6
2020-Jan-27 06:15 263 -0.6
2020-Jan-27 06:05 263 -0.6
2020-Jan-27 05:55 263 -0.6
2020-Jan-27 05:44 262 -0.0
2020-Jan-27 05:34 263 -0.0
2020-Jan-27 05:24 263 -0.0
2020-Jan-27 05:14 263 -0.0
2020-Jan-27 05:04 262 0.6
2020-Jan-27 04:54 262 1.1
2020-Jan-27 04:44 263 1.1
2020-Jan-27 04:34 263 1.7
2020-Jan-27 04:24 263 1.7
2020-Jan-27 04:14 263 2.2
2020-Jan-27 04:04 263 2.2
2020-Jan-27 03:54 262 2.2
2020-Jan-27 03:44 245 2.8
2020-Jan-27 03:33 259 2.8
2020-Jan-27 03:23 275 3.3
2020-Jan-27 03:13 254 2 gusting 4 3.3
2020-Jan-27 03:03 283 3.3
2020-Jan-27 02:54 269 3.3
2020-Jan-27 02:44 251 3.9
2020-Jan-27 02:34 268 2 gusting 7 3.9
2020-Jan-27 02:25 247 2 gusting 7 3.9
2020-Jan-27 02:14 238 2 gusting 3 3.9
2020-Jan-27 02:04 276 2 gusting 4 3.9
2020-Jan-27 01:54 237 2 gusting 2 3.9
2020-Jan-27 01:44 254 2 gusting 2 3.9
2020-Jan-27 01:34 251 4.4
2020-Jan-27 01:23 252 4.4
2020-Jan-27 01:13 288 4.4
2020-Jan-27 01:03 258 0 gusting 0 4.4
2020-Jan-27 00:53 271 4.4
2020-Jan-27 00:43 259 4.4
2020-Jan-27 00:33 290 5.0
2020-Jan-27 00:23 278 5.0
2020-Jan-27 00:13 288 0 gusting 3 5.0
2020-Jan-27 00:03 299 5.0